Tracking 17925 objects as of 24-January-2017
HD Live streaming from Space Station
objects crossing your sky now

SL-16 DEB

Track SL-16 DEB now!
10-day predictions


NORAD ID: 22289
Int'l Code: 1992-093D
Perigee: 794.3 km
Apogee: 794.3 km
Inclination: 70.8 °
Period: 100.6 minutes
Semi major axis: 7165 km
RCS: 0.0658 m2 (small)
Launch date: December 25, 1992
Source: Commonwealth of Independent States (former USSR) (CIS)
Launch site: TYURATAM MISSILE AND SPACE COMPLEX (TTMTR)

Note: This is SATELLITE DEBRIS
Your satellite tracking list
Your tracking list is empty





NASA's NSSDC Master Catalog

Two Line Element Set (TLE):
1 22289U 92093D   17022.78183823 +.00000004 +00000-0 +20424-4 0  9998
2 22289 070.8304 234.0625 0062788 214.5394 271.7438 14.31372558256541
Source of the keplerian elements: AFSPC